Weather History for Antwerp, Belgium

Change the Weather History Date:

Wednesday, November 21, 2012

  Actual Average Record
Temperature  
Mean Temperature 42 °F -  
Max Temperature 51 °F 44 °F 59 °F (2002)
Min Temperature 34 °F 35 °F 21 °F (1998)
Degree Days  
Heating Degree Days 22    
Moisture  
Dew Point 39 °F    
Average Humidity 84    
Maximum Humidity 100    
Minimum Humidity 61    
Precipitation  
Precipitation 0.02 in - - ()
Sea Level Pressure  
Sea Level Pressure 29.90 in    
Wind  
Wind Speed 9 mph ()    
Max Wind Speed 22 mph    
Max Gust Speed 36 mph    
Visibility 5.4 miles    
Events Rain    
Averages and records for this station are not official NWS values.
T = Trace of Precipitation, MM = Missing Value Source: Averaged Metar Reports

Daily Weather History Graph

Daily Weather History Graph

Search for Another Location

Airport:

Trip Planner

Search our weather history database for the weather conditions in past years. The results will help you decide how hot, cold, wet, or windy it might be!

Date:

Astronomy

Nov. 21, 2012 Rise Set
Actual Time 8:09 AM CET 4:46 PM CET
Civil Twilight 7:31 AM CET 5:23 PM CET
Nautical Twilight 6:50 AM CET 6:04 PM CET
Astronomical Twilight 6:11 AM CET 6:44 PM CET
Moon 1:35 PM CET (11/21) 12:28 AM CET (11/21)
Length of Visible Light 9h 51m
Length of Day
8h 36m
First Quarter, 59% of the Moon is Illuminated
Nov 21
First Quarter
Nov 28
Full
Dec 6
Last Quarter
Dec 13
New
Dec 20
First Quarter

Hourly Weather History & Observations

Time (CET) Temp. Windchill Dew Point Humidity Pressure Visibility Wind Dir Wind Speed Gust Speed Precip Events Conditions
12:20 AM 41.0 °F 35.8 °F 39.2 °F 93% 29.98 in 3.1 mi SE 8.1 mph - N/A   Unknown
12:50 AM 41.0 °F 35.8 °F 39.2 °F 93% 29.95 in 3.7 mi SE 8.1 mph - N/A   Unknown
1:00 AM 42 °F - 39 °F 87% 29.97 in - SE 8.9 mph - -   Mostly Cloudy
1:20 AM 41.0 °F 38.0 °F 39.2 °F 93% 29.95 in 3.1 mi SSE 4.6 mph - N/A   Unknown
1:50 AM 39.2 °F 35.9 °F 37.4 °F 93% 29.95 in 2.8 mi SSE 4.6 mph - N/A   Unknown
2:20 AM 35.6 °F 30.7 °F 35.6 °F 100% 29.95 in - SE 5.8 mph - N/A   Unknown
2:50 AM 35.6 °F 29.2 °F 35.6 °F 100% 29.95 in 2.2 mi ESE 8.1 mph - N/A   Mist
3:20 AM 37.4 °F 32.1 °F 35.6 °F 93% 29.92 in - ESE 6.9 mph - N/A   Unknown
3:50 AM 37.4 °F 32.1 °F 35.6 °F 93% 29.92 in - ESE 6.9 mph - N/A   Unknown
4:00 AM 38 °F - 36 °F 91% 29.93 in - ESE 6.7 mph - -  
4:20 AM 39.2 °F 33.6 °F 37.4 °F 93% 29.92 in 3.7 mi SE 8.1 mph - N/A   Unknown
4:50 AM 37.4 °F 32.1 °F 35.6 °F 93% 29.89 in 3.1 mi ESE 6.9 mph - N/A   Unknown
5:20 AM 37.4 °F 32.1 °F 35.6 °F 93% 29.89 in 3.1 mi ESE 6.9 mph - N/A   Unknown
5:50 AM 39.2 °F 35.0 °F 35.6 °F 87% 29.89 in 3.1 mi ESE 5.8 mph - N/A   Unknown
6:20 AM 37.4 °F 32.8 °F 35.6 °F 93% 29.89 in 3.1 mi ESE 5.8 mph - N/A   Unknown
6:50 AM 37.4 °F 32.8 °F 35.6 °F 93% 29.89 in 4.3 mi ESE 5.8 mph - N/A   Unknown
7:00 AM 37 °F - 35 °F 91% 29.90 in 4 mi ESE 6.7 mph - -   Clear
7:20 AM 37.4 °F 32.8 °F 35.6 °F 93% 29.89 in 4.3 mi ESE 5.8 mph - N/A   Unknown
7:50 AM 37.4 °F 32.1 °F 35.6 °F 93% 29.86 in 4.3 mi ESE 6.9 mph - N/A   Unknown
8:20 AM 37.4 °F 30.8 °F 35.6 °F 93% 29.86 in 4.3 mi ESE 9.2 mph - N/A   Unknown
8:50 AM 39.2 °F 33.6 °F 35.6 °F 87% 29.86 in 4.3 mi SE 8.1 mph - N/A   Unknown
9:20 AM 39.2 °F 33.0 °F 37.4 °F 93% 29.86 in 4.3 mi ESE 9.2 mph - N/A   Unknown
9:50 AM 41.0 °F 35.2 °F 37.4 °F 87% 29.86 in 4.3 mi SE 9.2 mph - N/A   Unknown
10:00 AM 40 °F - 37 °F 87% 29.86 in 4 mi SE 8.9 mph - -   Partly Cloudy
10:20 AM 41.0 °F 35.8 °F 37.4 °F 87% 29.86 in 4.3 mi SE 8.1 mph - N/A   Scattered Clouds
10:50 AM 42.8 °F 37.5 °F 37.4 °F 81% 29.86 in - SSE 9.2 mph - N/A   Clear
11:20 AM 42.8 °F 37.0 °F 37.4 °F 81% 29.83 in - SSE 10.4 mph - N/A   Clear
11:50 AM 44.6 °F 39.2 °F 37.4 °F 76% 29.83 in - South 10.4 mph - N/A   Clear
12:20 PM 46.4 °F 41.5 °F 37.4 °F 71% 29.83 in - South 10.4 mph - N/A   Clear
12:50 PM 46.4 °F 41.9 °F 37.4 °F 71% 29.83 in - South 9.2 mph - N/A   Clear
1:00 PM 46 °F - 38 °F 64% 29.84 in 16 mi South 8.9 mph - -   Scattered Clouds
1:20 PM 46.4 °F 41.9 °F 39.2 °F 76% 29.83 in - SSE 9.2 mph - N/A   Clear
1:50 PM 46.4 °F 42.4 °F 41.0 °F 81% 29.83 in 4.3 mi South 8.1 mph - N/A Rain Light Rain
2:20 PM 46.4 °F 42.9 °F 42.8 °F 87% 29.83 in 5.0 mi SSE 6.9 mph - N/A Rain Light Rain
2:50 PM 46.4 °F 42.4 °F 42.8 °F 87% 29.83 in 5.0 mi South 8.1 mph - N/A Rain Light Rain
3:20 PM 46.4 °F 42.4 °F 42.8 °F 87% 29.83 in 5.0 mi South 8.1 mph - N/A Rain Light Rain
3:50 PM 48.2 °F - 42.8 °F 82% 29.83 in 6.2 mi South 11.5 mph - N/A Rain Light Rain
4:00 PM 47 °F - 43 °F 82% 29.86 in 7 mi South 11.2 mph - - Rain Light Rain
4:20 PM 48.2 °F - 44.6 °F 87% 29.86 in 6.2 mi SSW 13.8 mph - N/A   Mostly Cloudy
4:50 PM 48.2 °F - 44.6 °F 87% 29.86 in 6.2 mi South 16.1 mph - N/A   Mostly Cloudy
5:20 PM 48.2 °F - 44.6 °F 87% 29.86 in 6.2 mi South 16.1 mph - N/A   Mostly Cloudy
5:50 PM 48.2 °F - 44.6 °F 87% 29.86 in 6.2 mi SSW 15.0 mph - N/A   Scattered Clouds
6:20 PM 50.0 °F - 44.6 °F 82% 29.86 in 6.2 mi SSW 16.1 mph - N/A   Scattered Clouds
6:50 PM 51.8 °F - 44.6 °F 76% 29.89 in 6.2 mi SSW 17.3 mph 28.8 mph N/A   Mostly Cloudy
7:00 PM 51 °F - 44 °F 71% 29.89 in 12 mi SSW 17.9 mph - -   Partly Cloudy
7:20 PM 51.8 °F - 44.6 °F 76% 29.89 in 6.2 mi SW 19.6 mph - N/A   Mostly Cloudy
7:50 PM 51.8 °F - 42.8 °F 71% 29.92 in 6.2 mi SW 18.4 mph 32.2 mph N/A   Mostly Cloudy
8:20 PM 51.8 °F - 42.8 °F 71% 29.92 in 6.2 mi WSW 19.6 mph - N/A   Mostly Cloudy
8:50 PM 51.8 °F - 42.8 °F 71% 29.95 in 6.2 mi WSW 18.4 mph - N/A   Mostly Cloudy
9:20 PM 51.8 °F - 41.0 °F 67% 29.98 in 6.2 mi WSW 21.9 mph 35.7 mph N/A   Mostly Cloudy
9:50 PM 50.0 °F - 41.0 °F 71% 30.01 in 6.2 mi WSW 17.3 mph - N/A   Mostly Cloudy
10:00 PM 50 °F - 41 °F 61% 30.01 in 12 mi WSW 17.9 mph - -   Mostly Cloudy
10:20 PM 50.0 °F - 41.0 °F 71% 30.01 in 6.2 mi WSW 17.3 mph - N/A   Mostly Cloudy
10:50 PM 50.0 °F - 41.0 °F 71% 30.04 in 6.2 mi WSW 16.1 mph - N/A   Mostly Cloudy
11:20 PM 48.2 °F - 41.0 °F 76% 30.04 in - WSW 10.4 mph - N/A   Clear
11:50 PM 48.2 °F - 41.0 °F 76% 30.06 in - SW 9.2 mph - N/A   Clear